EHI
3 2 2 1 0 0 1 3 5 3 1 0 0 0 0 0 0 0 0 1 3 4 4 2 1 0 0 0 0 0 0 0 0 0 0 0 0 0 0 0 0 0 0
2 1 1 1 0 1 3 4 4 2 1 0 0 0 0 0 0 0 0 1 2 2 1 1 1 1 0 0 0 1 1 1 0 0 0 0 0 0 0 0 0 0 0
2 1 1 1 1 2 4 4 2 1 0 0 0 0 0 0 0 0 0 0 0 0 0 0 0 1 1 0 0 1 2 1 0 0 0 0 0 0 0 0 0 0 0
3 3 2 1 1 2 3 1 0 0 0 0 0 0 0 0 0 0 0 0 0 0 0 1 1 0 0 0 0 1 1 1 0 0 0 0 0 0 0 0 0 0 0
4 3 2 1 1 1 1 0 0 0 0 0 0 0 0 0 0 0 0 0 0 0 0 1 2 1 1 0 0 0 0 0 0 0 0 0 0 0 0 0 0 0 0
2 2 2 2 1 0 0 0 0 0 0 0 0 0 0 0 0 0 0 0 0 0 0 1 2 2 2 1 0 0 0 0 0 0 1 1 1 1 1 1 0 0 0
1 0 1 1 1 0 0 0 0 0 0 0 0 0 0 0 0 0 0 0 0 0 0 0 1 2 2 2 1 1 0 0 0 1 3 3 3 3 3 2 1 1 1
1 0 0 0 1 1 1 1 0 0 0 0 0 0 0 0 0 0 0 0 0 0 0 0 1 2 2 2 2 1 0 0 0 2 3 4 5 5 4 4 3 3 2
3 2 1 1 1 1 2 1 0 0 0 0 0 0 0 0 0 0 0 1 0 0 0 0 1 1 1 1 2 1 0 0 0 1 1 2 3 4 5 5 5 4 4
6 6 5 4 3 3 3 2 1 1 0 0 1 1 1 0 0 0 0 1 1 0 0 0 0 0 0 1 1 0 0 0 0 0 0 0 1 1 2 4 5 5 5
8 8 8 7 7 6 5 4 3 3 2 2 1 1 2 2 1 1 0 1 2 1 0 0 0 0 0 1 1 0 0 0 0 0 0 0 0 0 1 2 3 3 3
9 9 9 9 9 7 6 5 5 5 4 4 4 3 3 4 4 4 2 2 2 2 1 1 0 0 0 1 1 0 0 0 0 0 0 0 0 0 0 1 1 1 1
8 8 9 10 10 8 5 5 5 6 6 6 7 6 5 5 7 8 5 3 2 3 3 1 0 0 0 0 0 0 0 0 0 0 0 0 0 0 0 1 1 0 0
6 7 9 10 11 9 6 5 5 6 7 7 6 6 5 6 8 8 7 5 4 3 2 1 0 0 0 1 1 1 1 0 0 0 0 0 0 0 0 0 0 0 0
5 7 9 10 11 10 8 7 6 7 7 6 5 6 6 7 7 7 7 8 6 3 1 0 0 0 1 2 2 2 1 0 0 0 0 0 0 0 0 0 0 0 0
6 7 9 10 11 11 11 10 8 8 8 8 7 7 7 8 8 7 7 9 7 4 2 1 1 2 3 3 3 2 1 0 0 0 0 0 0 0 0 0 0 0 0
8 8 8 10 11 11 13 13 11 9 9 10 10 9 8 9 8 7 6 7 7 5 4 3 3 4 5 4 3 2 1 0 0 0 0 0 0 0 0 0 0 0 0
9 8 8 8 9 11 14 15 13 10 9 11 12 11 9 9 9 7 5 6 6 6 6 5 5 6 6 4 3 2 1 0 0 0 0 0 0 0 0 0 0 0 0
9 10 9 8 9 11 13 13 12 10 10 11 12 11 10 10 9 8 6 5 6 6 6 6 6 6 6 5 4 3 1 0 0 0 0 0 0 0 0 0 0 0 0
11 12 13 11 10 11 11 12 11 10 10 12 13 12 10 9 9 9 7 6 6 6 6 6 6 6 6 6 5 4 1 0 0 0 0 0 0 0 0 0 0 0 0
12 14 14 12 11 10 10 11 11 11 11 14 15 12 11 10 8 7 6 6 6 6 6 6 6 6 6 6 6 5 3 1 0 0 0 0 0 0 0 0 0 0 0
14 16 15 13 11 9 8 7 10 13 16 18 18 15 12 11 9 6 5 4 4 5 6 6 6 6 6 6 6 6 4 1 0 0 0 0 0 0 0 0 0 0 0
22 22 20 16 13 9 5 3 6 13 20 23 23 19 16 13 11 8 6 4 3 3 5 6 6 6 6 6 6 5 3 1 0 0 0 0 0 0 0 0 0 0 0
29 28 25 21 18 13 5 1 4 13 21 25 25 22 20 16 12 11 9 6 4 3 4 5 5 4 4 4 4 3 2 1 0 0 0 0 0 0 0 0 0 0 0
31 29 26 25 24 18 8 1 5 14 23 25 26 23 20 15 10 9 11 10 6 4 3 2 2 1 1 1 1 1 1 0 0 0 0 0 0 0 0 0 0 0 0
29 27 25 27 27 22 11 2 5 15 23 27 27 23 17 11 7 7 11 12 9 5 2 1 0 0 0 0 0 0 0 0 0 0 0 0 0 0 0 0 0 0 0
Wind_Speed
3 3 3 2 3 3 3 3 3 4 4 4 4 4 4 4 4 4 5 7 5 3 3 4 4 4 5 6 6 6 6 7 6 7 8 8 9 9 9 9 9 9 9
3 3 3 3 3 3 3 3 4 4 3 4 4 4 3 3 4 3 3 5 5 3 3 3 3 4 5 5 5 5 5 5 5 5 6 7 7 7 7 7 7 8 9
3 2 2 2 3 3 4 3 4 4 3 4 4 4 3 3 3 3 3 2 4 5 4 3 3 3 4 5 5 5 5 5 5 5 5 5 6 6 6 7 6 6 7
2 1 2 3 2 2 3 3 3 3 3 3 3 2 3 3 3 2 2 2 1 2 4 3 2 2 3 4 5 4 4 5 5 5 5 5 6 6 6 6 6 6 5
2 1 2 3 1 2 2 2 4 2 3 3 3 3 2 2 2 2 2 2 2 1 2 5 4 3 2 2 2 3 4 5 6 5 5 5 5 4 4 5 5 4 4
1 1 2 2 1 2 2 3 3 2 2 2 2 3 2 2 1 2 1 2 2 1 1 2 3 4 3 2 1 2 3 4 5 5 5 5 5 5 5 5 5 5 5
1 0 1 2 0 2 2 2 2 3 2 2 2 2 3 2 2 1 1 0 1 1 1 1 0 0 3 4 2 1 1 1 3 5 6 5 5 4 4 5 4 4 5
1 1 1 0 1 2 2 2 2 1 2 1 1 1 2 3 2 2 1 1 1 1 1 1 1 1 1 1 3 2 1 1 2 3 5 4 4 4 4 4 4 4 4
1 1 0 0 0 1 2 2 2 2 1 1 1 2 1 1 2 3 2 2 2 1 1 1 1 1 1 1 1 3 2 1 0 1 2 3 3 3 4 4 5 4 4
1 1 0 0 1 1 1 2 2 1 2 1 1 1 1 1 1 2 2 2 2 1 2 1 2 2 1 1 3 5 5 4 4 3 2 2 2 2 2 3 4 4 4
1 1 1 0 1 1 1 1 1 2 2 1 1 1 1 2 2 2 2 2 1 1 1 1 1 1 2 3 3 6 7 6 6 5 4 3 2 1 1 1 2 2 3
0 1 1 1 1 1 1 2 2 3 2 2 2 2 2 1 2 1 2 2 2 2 2 2 1 2 2 3 5 8 8 7 6 6 5 5 4 3 2 1 1 2 2
1 1 1 1 1 0 1 2 2 2 3 3 3 3 2 2 1 1 2 2 2 2 2 2 2 2 2 3 4 6 8 7 6 6 5 5 4 4 4 3 2 3 3
1 1 1 1 1 1 1 1 2 2 2 3 3 3 3 2 2 2 2 2 2 2 2 2 2 3 2 3 5 3 6 8 7 6 6 5 6 5 5 6 6 5 5
1 1 0 0 0 0 1 1 1 1 1 2 3 3 2 1 2 2 2 2 2 2 2 3 2 3 2 3 3 4 6 9 8 7 6 6 6 6 6 6 6 6 7
1 1 1 1 0 1 1 1 1 1 1 1 1 1 1 1 1 1 2 2 2 2 1 3 2 3 3 3 5 5 6 9 9 8 7 7 7 7 7 7 7 7 7
2 2 1 1 1 1 1 1 1 1 2 1 1 1 1 1 1 1 1 1 1 1 3 3 3 4 3 3 4 4 4 3 6 9 8 8 8 8 8 8 8 7 7
3 3 2 2 2 2 2 2 2 2 2 2 2 2 1 2 2 1 1 2 2 2 3 4 4 4 4 4 4 3 3 3 5 9 8 8 8 8 8 8 7 7 6
3 3 2 3 2 2 2 2 2 2 2 2 2 2 2 2 2 2 1 2 2 3 3 4 5 3 3 3 4 3 3 2 3 7 8 8 7 7 7 7 7 6 6
4 3 3 3 3 3 3 2 2 2 2 2 2 2 2 2 3 3 3 3 3 4 4 4 4 4 4 4 3 3 3 3 2 3 4 5 6 6 6 5 5 5 5
5 4 4 4 3 3 3 3 3 3 2 2 2 2 2 3 3 1 1 3 4 3 4 4 4 4 3 3 3 2 2 3 3 1 2 3 3 3 4 5 4 4 4
5 5 4 4 4 2 3 2 2 2 3 3 3 3 4 5 6 5 4 4 2 3 3 3 3 4 4 3 2 2 2 2 2 2 1 2 2 2 2 2 5 5 4
6 5 5 5 4 3 4 3 3 3 3 3 3 3 3 4 6 6 6 6 4 2 1 2 2 3 3 3 3 3 1 1 0 2 2 1 1 1 2 4 7 5 4
6 6 6 6 5 5 6 5 4 4 3 3 4 4 4 4 4 4 5 5 4 4 3 2 1 1 2 3 3 3 2 3 2 2 2 2 2 1 2 3 8 6 5
6 6 6 6 6 5 6 7 7 5 4 4 4 4 4 4 5 5 5 5 5 5 5 5 4 3 4 3 2 3 3 3 3 3 3 3 2 2 2 3 6 9 7
6 6 6 6 6 6 7 8 8 5 5 4 4 4 4 4 6 6 6 5 5 4 4 6 5 5 5 5 5 4 3 3 2 2 3 2 2 2 2 2 2 4 6
Wind_Direction
79 83 79 70 77 91 107 105 105 106 108 111 106 103 104 100 97 97 109 120 128 141 149 162 173 181 182 187 188 193 198 199 198 202 202 205 207 209 208 209 211 208 205
82 83 96 82 77 76 77 95 102 108 109 103 103 99 97 103 96 88 97 122 127 128 134 146 157 166 172 176 175 175 185 189 187 192 198 203 206 207 206 210 216 215 212
90 98 92 97 82 89 103 108 105 113 118 114 108 109 104 86 85 88 92 108 137 138 129 142 157 165 174 179 178 176 185 192 196 196 197 197 201 203 206 213 216 216 216
88 84 88 87 93 107 109 110 116 112 107 108 105 101 100 102 100 102 107 103 101 125 143 132 143 162 175 189 190 189 196 199 206 212 213 211 212 212 210 211 213 214 213
99 97 81 80 116 103 99 107 101 101 109 109 116 113 104 97 98 101 95 94 94 92 115 130 138 124 143 172 187 207 205 205 207 215 221 218 217 215 218 217 216 212 211
89 55 113 101 99 99 95 89 101 109 111 119 113 101 99 105 107 106 117 115 111 115 90 106 151 151 135 123 145 197 209 219 210 213 216 217 213 209 217 223 224 220 219
92 66 55 107 115 104 101 127 138 139 136 131 139 136 133 130 119 122 145 104 98 86 77 84 100 244 151 154 147 176 214 217 211 213 210 208 201 194 202 210 208 208 212
71 135 106 169 129 127 142 147 158 161 156 177 232 197 169 153 151 140 142 144 114 112 101 83 62 19 337 119 109 127 164 260 242 213 197 189 192 190 188 192 191 200 211
61 30 72 291 169 188 150 175 183 188 188 184 250 282 271 130 137 124 105 95 81 66 79 93 91 55 7 14 77 107 94 67 63 122 152 165 167 180 186 194 200 198 200
27 20 20 251 262 231 172 205 168 208 217 210 171 250 309 338 261 144 136 115 103 81 42 20 54 60 53 57 70 66 79 72 71 73 90 120 145 171 191 207 212 208 202
26 347 344 301 251 242 204 231 195 234 231 246 236 212 203 208 242 230 164 145 133 97 82 58 53 50 62 62 67 74 78 72 69 67 67 69 70 108 153 192 203 200 185
107 42 360 320 283 289 217 216 223 212 237 249 257 250 244 239 225 218 202 180 149 104 89 69 52 55 67 71 72 75 76 72 68 66 64 63 57 54 71 101 129 158 146
107 67 7 337 322 311 245 227 216 230 226 231 240 246 249 248 253 241 217 189 163 136 116 115 81 73 76 76 83 87 86 74 70 68 66 67 68 66 66 76 92 116 121
24 47 27 343 323 293 253 216 222 213 216 227 238 248 251 241 228 222 226 198 182 164 141 102 84 73 61 68 72 88 90 75 69 66 63 67 70 73 72 75 77 85 94
176 130 231 270 286 256 269 234 210 211 203 224 224 222 246 231 235 225 211 220 222 197 150 125 109 83 71 75 64 85 86 80 74 70 67 68 69 76 83 84 86 89 90
224 223 246 236 228 219 223 242 216 186 204 215 236 239 246 221 211 207 204 210 229 218 140 112 114 104 78 90 86 85 91 100 83 78 74 72 73 72 75 81 86 88 90
200 212 220 234 224 215 204 212 239 193 205 192 201 185 194 259 232 203 183 174 169 152 139 121 114 112 110 99 96 94 104 107 96 87 83 79 77 76 75 76 77 78 81
201 203 208 216 217 205 200 206 219 208 198 188 180 167 172 170 178 204 176 154 137 143 146 137 133 133 128 126 117 117 109 104 101 100 94 87 83 81 79 77 78 78 76
199 199 204 214 214 207 202 205 211 204 191 184 177 173 169 161 165 142 162 145 143 140 140 147 141 136 140 140 140 135 112 103 113 121 117 108 97 92 87 84 82 83 82
194 192 197 207 206 203 201 202 199 187 181 178 178 172 164 164 159 157 153 154 146 147 148 154 145 147 145 150 167 151 142 137 116 115 106 113 119 117 106 99 96 94 91
195 192 196 200 200 202 201 196 192 180 172 160 153 155 138 113 96 113 146 146 154 164 164 161 155 152 147 163 178 177 150 144 132 130 132 132 145 150 141 140 131 116 107
194 191 198 205 205 201 119 146 221 185 177 170 162 156 150 149 133 121 99 100 120 168 173 174 164 161 158 170 171 189 164 178 160 152 191 152 163 152 140 126 121 134 143
190 194 199 203 201 178 153 171 207 206 191 181 178 180 179 138 151 146 137 140 128 99 127 209 167 171 163 161 183 196 181 234 324 134 218 193 174 167 146 108 122 139 157
194 197 201 201 201 188 172 183 200 201 195 189 188 185 178 165 158 156 153 149 149 146 159 189 149 168 140 149 189 207 190 190 188 183 222 234 178 189 166 145 146 158 167
201 203 201 202 204 195 184 192 206 198 189 192 192 186 182 175 141 164 170 162 157 149 122 95 74 89 91 133 194 204 192 210 203 182 196 234 200 207 210 193 163 173 185
206 209 204 208 209 207 186 193 211 210 195 190 179 174 165 177 152 174 187 173 169 164 155 150 150 161 168 169 195 227 224 232 229 202 165 228 218 221 220 194 186 183 194